George, South Africa

6:08 PM SAST on August 19, 2017 (GMT +0200)
George

Weather History for FAGG - October, 2011

Change the Weather History Date:

Tuesday, October 11, 2011

  Actual Average Record
Temperature  
Mean Temperature 60 °F -  
Max Temperature 67 °F 68 °F 77 °F (1996)
Min Temperature 52 °F 51 °F 44 °F (2004)
Degree Days  
Heating Degree Days 6    
Growing Degree Days 10 (Base 50)    
Moisture  
Dew Point 55 °F    
Average Humidity 83    
Maximum Humidity 100    
Minimum Humidity 61    
Precipitation  
Precipitation 0.00 in - - ()
Sea Level Pressure  
Sea Level Pressure 30.08 in    
Wind  
Wind Speed 5 mph ()    
Max Wind Speed 12 mph    
Max Gust Speed -    
Visibility 7.2 miles    
Events      
Averages and records for this station are not official NWS values.
T = Trace of Precipitation, MM = Missing Value Source: Averaged Metar Reports

Daily Weather History Graph

Daily Weather History Graph

Search for Another Location

Airport or City:

Trip Planner

Search our weather history database for the weather conditions in past years. The results will help you decide how hot, cold, wet, or windy it might be!

Date:

Astronomy

Oct. 11, 2011 Rise Set
Actual Time 5:54 AM SAST 6:40 PM SAST
Civil Twilight 5:29 AM SAST 7:05 PM SAST
Nautical Twilight 4:59 AM SAST 7:35 PM SAST
Astronomical Twilight 4:28 AM SAST 8:06 PM SAST
Moon 6:19 PM SAST (10/11) 5:11 AM SAST (10/11)
Length of Visible Light 13h 36m
Length of Day
12h 45m
Full, 100% of the Moon is Illuminated
Oct 11
Full
Oct 12
Full
Oct 20
Last Quarter
Oct 26
New
Nov 2
First Quarter

Hourly Weather History & Observations

Time (SAST) Temp. Dew Point Humidity Pressure Visibility Wind Dir Wind Speed Gust Speed Precip Events Conditions
12:00 AM 59.0 °F 55.4 °F 88% 30.06 in - NNW 4.6 mph - N/A   Clear
1:00 AM 59.0 °F 55.4 °F 88% 30.04 in - North 3.5 mph - N/A   Clear
2:00 AM 56 °F 54 °F 90% 30.05 in 6 mi NW 4.6 mph - -  
2:00 AM 57.2 °F 53.6 °F 88% 30.04 in - NW 4.6 mph - N/A   Clear
3:00 AM 55.4 °F 53.6 °F 94% 30.04 in - WNW 3.5 mph - N/A   Clear
4:00 AM 53.6 °F 53.6 °F 100% 30.04 in - WNW 4.6 mph - N/A   Clear
5:00 AM 55 °F 53 °F 90% 30.07 in 12 mi West 3.5 mph - -  
5:00 AM 53.6 °F 51.8 °F 94% 30.06 in - West 4.6 mph - N/A   Clear
6:00 AM 53.6 °F 51.8 °F 94% 30.06 in 6.2 mi NW 3.5 mph - N/A   Partly Cloudy
7:00 AM 55.4 °F 53.6 °F 94% 30.09 in 6.2 mi NW 4.6 mph - N/A   Scattered Clouds
7:05 AM 57.2 °F 53.6 °F 88% 30.09 in 6.2 mi NW 4.6 mph - N/A   Mostly Cloudy
8:00 AM 59 °F 55 °F 81% 30.12 in 12 mi WNW 4.6 mph - -   Mostly Cloudy
8:00 AM 59.0 °F 53.6 °F 82% 30.12 in 6.2 mi WNW 4.6 mph - N/A   Mostly Cloudy
9:00 AM 60.8 °F 55.4 °F 82% 30.12 in 6.2 mi WSW 4.6 mph - N/A   Mostly Cloudy
9:30 AM 60.8 °F 55.4 °F 82% 30.12 in 6.2 mi SW 3.5 mph - N/A   Mostly Cloudy
10:00 AM 62.6 °F 55.4 °F 77% 30.12 in 6.2 mi Variable 2.3 mph - N/A   Mostly Cloudy
11:00 AM 64 °F 55 °F 64% 30.13 in 12 mi SSW 4.6 mph - -   Mostly Cloudy
11:00 AM 64.4 °F 55.4 °F 73% 30.12 in 6.2 mi SW 5.8 mph - N/A   Mostly Cloudy
12:00 PM 66.2 °F 55.4 °F 68% 30.09 in 6.2 mi Variable 6.9 mph - N/A   Scattered Clouds
1:00 PM 68.0 °F 55.4 °F 64% 30.09 in 6.2 mi SSE 8.1 mph - N/A   Scattered Clouds
2:00 PM 67 °F 56 °F 61% 30.09 in 12 mi SSE 10.4 mph - -   Scattered Clouds
2:00 PM 66.2 °F 57.2 °F 73% 30.06 in 6.2 mi South 10.4 mph - N/A   Partly Cloudy
3:00 PM 68.0 °F 55.4 °F 64% 30.06 in 6.2 mi SSE 9.2 mph - N/A   Partly Cloudy
4:00 PM 64.4 °F 57.2 °F 77% 30.06 in 6.2 mi SSE 11.5 mph - N/A   Scattered Clouds
5:00 PM 63 °F 56 °F 73% 30.08 in 12 mi SE 10.4 mph - -   Mostly Cloudy
5:00 PM 62.6 °F 57.2 °F 82% 30.06 in 6.2 mi SE 10.4 mph - N/A   Mostly Cloudy
5:38 PM 62.6 °F 57.2 °F 82% 30.06 in 6.2 mi SE 9.2 mph - N/A   Mostly Cloudy
6:00 PM 62.6 °F 57.2 °F 82% 30.06 in 6.2 mi SE 8.1 mph - N/A   Mostly Cloudy
7:00 PM 60.8 °F 57.2 °F 88% 30.06 in 6.2 mi ESE 8.1 mph - N/A   Mostly Cloudy
7:51 PM 60.8 °F 57.2 °F 88% 30.06 in 6.2 mi East 5.8 mph - N/A   Mostly Cloudy
8:00 PM 60 °F 58 °F 90% 30.08 in 12 mi ESE 6.9 mph - -   Mostly Cloudy
8:00 PM 60.8 °F 57.2 °F 88% 30.06 in 6.2 mi East 5.8 mph - N/A   Mostly Cloudy
9:00 PM 60.8 °F 59.0 °F 94% 30.06 in 6.2 mi ESE 5.8 mph - N/A   Mostly Cloudy
10:00 PM 59.0 °F 57.2 °F 94% 30.06 in 4.3 mi ESE 5.8 mph - N/A   Scattered Clouds
11:00 PM 59.0 °F 57.2 °F 94% 30.06 in 3.7 mi SE 4.6 mph - N/A   Mostly Cloudy